Location: Unspecified
(0.0000°N, 0.0000°E)
Time: 02:05:58
(UTC+02:00)

Cosmos 1125 Rocket - Visible Passes

Search period start: 08 July 2015 00:00
Search period end: 18 July 2015 00:00
Orbit: 757 x 781 km, 74.0° (Epoch: 06 July)

Date Brightness Start Highest point End Pass type
(mag) Time Alt. Az. Time Alt. Az. Time Alt. Az.
08 Jul 6.2 05:56:43 10° NE 06:00:06 18° ENE 06:03:43 10° ESE visible
09 Jul 3.6 07:00:26 10° NNW 07:05:29 51° WSW 07:10:32 10° S visible
10 Jul 3.6 06:23:45 10° N 06:28:57 77° ENE 06:34:09 10° SSE visible
11 Jul 4.8 05:47:38 10° N 05:52:23 37° ENE 05:57:11 10° SE visible
11 Jul 5.2 07:32:16 10° W 07:34:26 12° WSW 07:36:11 10° SW visible
12 Jul 5.9 05:12:20 10° NE 05:15:45 18° ENE 05:18:25 13° ESE visible
12 Jul 4.4 06:53:27 10° NW 06:57:45 25° WSW 06:58:13 24° WSW visible
13 Jul 5.0 06:16:06 10° NNW 06:18:09 23° NW 06:18:09 23° NW visible
14 Jul 6.0 05:39:24 10° N 05:39:44 12° N 05:39:44 12° N visible
